Datum;"Wasserstand in cm";"Stationsnummer: 5934900";"Stationsname: L�bzow";"Gew?sser: Stepenitz";"Fehlwerte: -777"
"20.03.2024 00:00";235
"20.03.2024 00:15";235
"20.03.2024 00:30";235
"20.03.2024 00:45";235
"20.03.2024 01:00";235
"20.03.2024 01:15";235
"20.03.2024 01:30";235
"20.03.2024 01:45";235
"20.03.2024 02:00";235
"20.03.2024 02:15";235
"20.03.2024 02:30";235
"20.03.2024 02:45";235
"20.03.2024 03:00";235
"20.03.2024 03:15";235
"20.03.2024 03:30";235
"20.03.2024 03:45";235
"20.03.2024 04:00";235
"20.03.2024 04:15";235
"20.03.2024 04:30";235
"20.03.2024 04:45";235
"20.03.2024 05:00";235
"20.03.2024 05:15";235
"20.03.2024 05:30";235
"20.03.2024 05:45";235
"20.03.2024 06:00";235
"20.03.2024 06:15";235
"20.03.2024 06:30";234
"20.03.2024 06:45";234
"20.03.2024 07:00";234
"20.03.2024 07:15";234
"20.03.2024 07:30";234
"20.03.2024 07:45";234
"20.03.2024 08:00";234
"20.03.2024 08:15";234
"20.03.2024 08:30";234
"20.03.2024 08:45";234
"20.03.2024 09:00";234
"20.03.2024 09:15";234
"20.03.2024 09:30";234
"20.03.2024 09:45";234
"20.03.2024 10:00";234
"20.03.2024 10:15";234
"20.03.2024 10:30";234
"20.03.2024 10:45";234
"20.03.2024 11:00";234
"20.03.2024 11:15";234
"20.03.2024 11:30";234
"20.03.2024 11:45";234
"20.03.2024 12:00";234
"20.03.2024 12:15";234
"20.03.2024 12:30";234
"20.03.2024 12:45";234
"20.03.2024 13:00";234
"20.03.2024 13:15";234
"20.03.2024 13:30";234
"20.03.2024 13:45";234
"20.03.2024 14:00";234
"20.03.2024 14:15";234
"20.03.2024 14:30";234
"20.03.2024 14:45";234
"20.03.2024 15:00";234
"20.03.2024 15:15";234
"20.03.2024 15:30";234
"20.03.2024 15:45";234
"20.03.2024 16:00";234
"20.03.2024 16:15";234
"20.03.2024 16:30";234
"20.03.2024 16:45";234
"20.03.2024 17:00";234
"20.03.2024 17:15";234
"20.03.2024 17:30";234
"20.03.2024 17:45";234
"20.03.2024 18:00";234
"20.03.2024 18:15";234
"20.03.2024 18:30";234
"20.03.2024 18:45";234
"20.03.2024 19:00";234
"20.03.2024 19:15";234
"20.03.2024 19:30";234
"20.03.2024 19:45";234
"20.03.2024 20:00";234
"20.03.2024 20:15";234
"20.03.2024 20:30";234
"20.03.2024 20:45";234
"20.03.2024 21:00";234
"20.03.2024 21:15";234
"20.03.2024 21:30";234
"20.03.2024 21:45";234
"20.03.2024 22:00";234
"20.03.2024 22:15";234
"20.03.2024 22:30";234
"20.03.2024 22:45";234
"20.03.2024 23:00";234
"20.03.2024 23:15";234
"20.03.2024 23:30";234
"20.03.2024 23:45";234
"21.03.2024 00:00";234
"21.03.2024 00:15";234
"21.03.2024 00:30";234
"21.03.2024 00:45";234
"21.03.2024 01:00";234
"21.03.2024 01:15";234
"21.03.2024 01:30";234
"21.03.2024 01:45";234
"21.03.2024 02:00";234
"21.03.2024 02:15";234
"21.03.2024 02:30";234
"21.03.2024 02:45";234
"21.03.2024 03:00";234
"21.03.2024 03:15";234
"21.03.2024 03:30";234
"21.03.2024 03:45";234
"21.03.2024 04:00";234
"21.03.2024 04:15";234
"21.03.2024 04:30";234
"21.03.2024 04:45";234
"21.03.2024 05:00";234
"21.03.2024 05:15";234
"21.03.2024 05:30";234
"21.03.2024 05:45";234
"21.03.2024 06:00";234
"21.03.2024 06:15";234
"21.03.2024 06:30";234
"21.03.2024 06:45";234
"21.03.2024 07:00";234
"21.03.2024 07:15";234
"21.03.2024 07:30";234
"21.03.2024 07:45";234
"21.03.2024 08:00";235
"21.03.2024 08:15";235
"21.03.2024 08:30";235
"21.03.2024 08:45";235
"21.03.2024 09:00";235
"21.03.2024 09:15";235
"21.03.2024 09:30";235
"21.03.2024 09:45";236
"21.03.2024 10:00";236
"21.03.2024 10:15";236
"21.03.2024 10:30";236
"21.03.2024 10:45";236
"21.03.2024 11:00";236
"21.03.2024 11:15";236
"21.03.2024 11:30";236
"21.03.2024 11:45";236
"21.03.2024 12:00";236
"21.03.2024 12:15";237
"21.03.2024 12:30";237
"21.03.2024 12:45";237
"21.03.2024 13:00";237
"21.03.2024 13:15";237
"21.03.2024 13:30";237
"21.03.2024 13:45";237
"21.03.2024 14:00";237
"21.03.2024 14:15";238
"21.03.2024 14:30";238
"21.03.2024 14:45";238
"21.03.2024 15:00";238
"21.03.2024 15:15";238
"21.03.2024 15:30";238
"21.03.2024 15:45";239
"21.03.2024 16:00";239
"21.03.2024 16:15";239
"21.03.2024 16:30";239
"21.03.2024 16:45";239
"21.03.2024 17:00";239
"21.03.2024 17:15";239
"21.03.2024 17:30";240
"21.03.2024 17:45";240
"21.03.2024 18:00";240
"21.03.2024 18:15";240
"21.03.2024 18:30";240
"21.03.2024 18:45";241
"21.03.2024 19:00";241
"21.03.2024 19:15";241
"21.03.2024 19:30";241
"21.03.2024 19:45";241
"21.03.2024 20:00";241
"21.03.2024 20:15";241
"21.03.2024 20:30";242
"21.03.2024 20:45";242
"21.03.2024 21:00";242
"21.03.2024 21:15";242
"21.03.2024 21:30";242
"21.03.2024 21:45";242
"21.03.2024 22:00";243
"21.03.2024 22:15";243
"21.03.2024 22:30";243
"21.03.2024 22:45";243
"21.03.2024 23:00";243
"21.03.2024 23:15";243
"21.03.2024 23:30";243
"21.03.2024 23:45";244
"22.03.2024 00:00";244
"22.03.2024 00:15";244
"22.03.2024 00:30";244
"22.03.2024 00:45";244
"22.03.2024 01:00";244
"22.03.2024 01:15";244
"22.03.2024 01:30";244
"22.03.2024 01:45";244
"22.03.2024 02:00";244
"22.03.2024 02:15";244
"22.03.2024 02:30";244
"22.03.2024 02:45";245
"22.03.2024 03:00";245
"22.03.2024 03:15";245
"22.03.2024 03:30";245
"22.03.2024 03:45";245
"22.03.2024 04:00";245
"22.03.2024 04:15";245
"22.03.2024 04:30";245
"22.03.2024 04:45";245
"22.03.2024 05:00";245
"22.03.2024 05:15";245
"22.03.2024 05:30";245
"22.03.2024 05:45";245
"22.03.2024 06:00";245
"22.03.2024 06:15";245
"22.03.2024 06:30";245
"22.03.2024 06:45";245
"22.03.2024 07:00";245
"22.03.2024 07:15";245
"22.03.2024 07:30";245
"22.03.2024 07:45";245
"22.03.2024 08:00";245
"22.03.2024 08:15";245
"22.03.2024 08:30";245
"22.03.2024 08:45";245
"22.03.2024 09:00";245
"22.03.2024 09:15";245
"22.03.2024 09:30";245
"22.03.2024 09:45";245
"22.03.2024 10:00";245
"22.03.2024 10:15";245
"22.03.2024 10:30";245
"22.03.2024 10:45";245
"22.03.2024 11:00";245
"22.03.2024 11:15";245
"22.03.2024 11:30";245
"22.03.2024 11:45";245
"22.03.2024 12:00";245
"22.03.2024 12:15";245
"22.03.2024 12:30";245
"22.03.2024 12:45";245
"22.03.2024 13:00";245
"22.03.2024 13:15";245
"22.03.2024 13:30";245
"22.03.2024 13:45";245
"22.03.2024 14:00";245
"22.03.2024 14:15";245
"22.03.2024 14:30";245
"22.03.2024 14:45";245
"22.03.2024 15:00";245
"22.03.2024 15:15";245
"22.03.2024 15:30";245
"22.03.2024 15:45";245
"22.03.2024 16:00";245
"22.03.2024 16:15";245
"22.03.2024 16:30";245
"22.03.2024 16:45";245
"22.03.2024 17:00";245
"22.03.2024 17:15";245
"22.03.2024 17:30";245
"22.03.2024 17:45";245
"22.03.2024 18:00";245
"22.03.2024 18:15";245
"22.03.2024 18:30";245
"22.03.2024 18:45";245
"22.03.2024 19:00";245
"22.03.2024 19:15";245
"22.03.2024 19:30";245
"22.03.2024 19:45";245
"22.03.2024 20:00";245
"22.03.2024 20:15";245
"22.03.2024 20:30";245
"22.03.2024 20:45";245
"22.03.2024 21:00";245
"22.03.2024 21:15";245
"22.03.2024 21:30";245
"22.03.2024 21:45";245
"22.03.2024 22:00";245
"22.03.2024 22:15";245
"22.03.2024 22:30";245
"22.03.2024 22:45";245
"22.03.2024 23:00";245
"22.03.2024 23:15";245
"22.03.2024 23:30";245
"22.03.2024 23:45";245
"23.03.2024 00:00";245
"23.03.2024 00:15";245
"23.03.2024 00:30";245
"23.03.2024 00:45";245
"23.03.2024 01:00";245
"23.03.2024 01:15";245
"23.03.2024 01:30";245
"23.03.2024 01:45";245
"23.03.2024 02:00";245
"23.03.2024 02:15";245
"23.03.2024 02:30";245
"23.03.2024 02:45";245
"23.03.2024 03:00";245
"23.03.2024 03:15";245
"23.03.2024 03:30";245
"23.03.2024 03:45";245
"23.03.2024 04:00";245
"23.03.2024 04:15";246
"23.03.2024 04:30";246
"23.03.2024 04:45";246
"23.03.2024 05:00";246
"23.03.2024 05:15";246
"23.03.2024 05:30";246
"23.03.2024 05:45";246
"23.03.2024 06:00";246
"23.03.2024 06:15";246
"23.03.2024 06:30";246
"23.03.2024 06:45";246
"23.03.2024 07:00";246
"23.03.2024 07:15";246
"23.03.2024 07:30";246
"23.03.2024 07:45";246
"23.03.2024 08:00";246
"23.03.2024 08:15";246
"23.03.2024 08:30";246
"23.03.2024 08:45";247
"23.03.2024 09:00";247
"23.03.2024 09:15";247
"23.03.2024 09:30";247
"23.03.2024 09:45";247
"23.03.2024 10:00";247
"23.03.2024 10:15";247
"23.03.2024 10:30";247
"23.03.2024 10:45";247
"23.03.2024 11:00";247
"23.03.2024 11:15";247
"23.03.2024 11:30";247
"23.03.2024 11:45";247
"23.03.2024 12:00";247
"23.03.2024 12:15";247
"23.03.2024 12:30";247
"23.03.2024 12:45";248
"23.03.2024 13:00";248
"23.03.2024 13:15";248
"23.03.2024 13:30";248
"23.03.2024 13:45";248
"23.03.2024 14:00";248
"23.03.2024 14:15";248
"23.03.2024 14:30";248
"23.03.2024 14:45";248
"23.03.2024 15:00";248
"23.03.2024 15:15";248
"23.03.2024 15:30";248
"23.03.2024 15:45";248
"23.03.2024 16:00";248
"23.03.2024 16:15";248
"23.03.2024 16:30";248
"23.03.2024 16:45";248
"23.03.2024 17:00";248
"23.03.2024 17:15";248
"23.03.2024 17:30";248
"23.03.2024 17:45";248
"23.03.2024 18:00";248
"23.03.2024 18:15";248
"23.03.2024 18:30";248
"23.03.2024 18:45";248
"23.03.2024 19:00";248
"23.03.2024 19:15";248
"23.03.2024 19:30";248
"23.03.2024 19:45";248
"23.03.2024 20:00";248
"23.03.2024 20:15";248
"23.03.2024 20:30";248
"23.03.2024 20:45";248
"23.03.2024 21:00";248
"23.03.2024 21:15";248
"23.03.2024 21:30";248
"23.03.2024 21:45";248
"23.03.2024 22:00";248
"23.03.2024 22:15";248
"23.03.2024 22:30";248
"23.03.2024 22:45";248
"23.03.2024 23:00";248
"23.03.2024 23:15";248
"23.03.2024 23:30";248
"23.03.2024 23:45";248
"24.03.2024 00:00";248
"24.03.2024 00:15";248
"24.03.2024 00:30";248
"24.03.2024 00:45";248
"24.03.2024 01:00";248
"24.03.2024 01:15";248
"24.03.2024 01:30";248
"24.03.2024 01:45";248
"24.03.2024 02:00";248
"24.03.2024 02:15";248
"24.03.2024 02:30";248
"24.03.2024 02:45";248
"24.03.2024 03:00";248
"24.03.2024 03:15";248
"24.03.2024 03:30";248
"24.03.2024 03:45";248
"24.03.2024 04:00";248
"24.03.2024 04:15";248
"24.03.2024 04:30";248
"24.03.2024 04:45";248
"24.03.2024 05:00";248
"24.03.2024 05:15";248
"24.03.2024 05:30";248
"24.03.2024 05:45";248
"24.03.2024 06:00";248
"24.03.2024 06:15";248
"24.03.2024 06:30";248
"24.03.2024 06:45";248
"24.03.2024 07:00";248
"24.03.2024 07:15";248
"24.03.2024 07:30";248
"24.03.2024 07:45";248
"24.03.2024 08:00";248
"24.03.2024 08:15";248
"24.03.2024 08:30";248
"24.03.2024 08:45";248
"24.03.2024 09:00";248
"24.03.2024 09:15";248
"24.03.2024 09:30";248
"24.03.2024 09:45";248
"24.03.2024 10:00";248
"24.03.2024 10:15";248
"24.03.2024 10:30";248
"24.03.2024 10:45";248
"24.03.2024 11:00";248
"24.03.2024 11:15";248
"24.03.2024 11:30";248
"24.03.2024 11:45";248
"24.03.2024 12:00";248
"24.03.2024 12:15";248
"24.03.2024 12:30";248
"24.03.2024 12:45";248
"24.03.2024 13:00";248
"24.03.2024 13:15";248
"24.03.2024 13:30";248
"24.03.2024 13:45";248
"24.03.2024 14:00";248
"24.03.2024 14:15";248
"24.03.2024 14:30";248
"24.03.2024 14:45";248
"24.03.2024 15:00";248
"24.03.2024 15:15";248
"24.03.2024 15:30";248
"24.03.2024 15:45";248
"24.03.2024 16:00";248
"24.03.2024 16:15";248
"24.03.2024 16:30";248
"24.03.2024 16:45";248
"24.03.2024 17:00";248
"24.03.2024 17:15";248
"24.03.2024 17:30";248
"24.03.2024 17:45";248
"24.03.2024 18:00";248
"24.03.2024 18:15";248
"24.03.2024 18:30";248
"24.03.2024 18:45";248
"24.03.2024 19:00";248
"24.03.2024 19:15";248
"24.03.2024 19:30";248
"24.03.2024 19:45";248
"24.03.2024 20:00";248
"24.03.2024 20:15";248
"24.03.2024 20:30";248
"24.03.2024 20:45";248
"24.03.2024 21:00";248
"24.03.2024 21:15";248
"24.03.2024 21:30";248
"24.03.2024 21:45";248
"24.03.2024 22:00";248
"24.03.2024 22:15";249
"24.03.2024 22:30";249
"24.03.2024 22:45";249
"24.03.2024 23:00";249
"24.03.2024 23:15";249
"24.03.2024 23:30";249
"24.03.2024 23:45";249
"25.03.2024 00:00";249
"25.03.2024 00:15";249
"25.03.2024 00:30";249
"25.03.2024 00:45";249
"25.03.2024 01:00";249
"25.03.2024 01:15";250
"25.03.2024 01:30";250
"25.03.2024 01:45";250
"25.03.2024 02:00";250
"25.03.2024 02:15";250
"25.03.2024 02:30";250
"25.03.2024 02:45";250
"25.03.2024 03:00";250
"25.03.2024 03:15";250
"25.03.2024 03:30";250
"25.03.2024 03:45";250
"25.03.2024 04:00";250
"25.03.2024 04:15";250
"25.03.2024 04:30";250
"25.03.2024 04:45";251
"25.03.2024 05:00";251
"25.03.2024 05:15";251
"25.03.2024 05:30";251
"25.03.2024 05:45";251
"25.03.2024 06:00";251
"25.03.2024 06:15";251
"25.03.2024 06:30";251
"25.03.2024 06:45";252
"25.03.2024 07:00";252
"25.03.2024 07:15";252
"25.03.2024 07:30";252
"25.03.2024 07:45";252
"25.03.2024 08:00";252
"25.03.2024 08:15";252
"25.03.2024 08:30";252
"25.03.2024 08:45";253
"25.03.2024 09:00";253
"25.03.2024 09:15";253
"25.03.2024 09:30";253
"25.03.2024 09:45";253
"25.03.2024 10:00";253
"25.03.2024 10:15";253
"25.03.2024 10:30";253
"25.03.2024 10:45";254
"25.03.2024 11:00";254
"25.03.2024 11:15";254
"25.03.2024 11:30";254
"25.03.2024 11:45";254
"25.03.2024 12:00";254
"25.03.2024 12:15";254
"25.03.2024 12:30";255
"25.03.2024 12:45";255
"25.03.2024 13:00";255
"25.03.2024 13:15";255
"25.03.2024 13:30";255
"25.03.2024 13:45";255
"25.03.2024 14:00";255
"25.03.2024 14:15";256
"25.03.2024 14:30";256
"25.03.2024 14:45";256
"25.03.2024 15:00";256
"25.03.2024 15:15";256
"25.03.2024 15:30";256
"25.03.2024 15:45";256
"25.03.2024 16:00";256
"25.03.2024 16:15";256
"25.03.2024 16:30";257
"25.03.2024 16:45";257
"25.03.2024 17:00";257
"25.03.2024 17:15";257
"25.03.2024 17:30";257
"25.03.2024 17:45";257
"25.03.2024 18:00";257
"25.03.2024 18:15";257
"25.03.2024 18:30";257
"25.03.2024 18:45";257
"25.03.2024 19:00";257
"25.03.2024 19:15";257
"25.03.2024 19:30";258
"25.03.2024 19:45";258
"25.03.2024 20:00";258
"25.03.2024 20:15";258
"25.03.2024 20:30";258
"25.03.2024 20:45";258
"25.03.2024 21:00";258
"25.03.2024 21:15";258
"25.03.2024 21:30";258
"25.03.2024 21:45";258
"25.03.2024 22:00";258
"25.03.2024 22:15";258
"25.03.2024 22:30";258
"25.03.2024 22:45";258
"25.03.2024 23:00";259
"25.03.2024 23:15";259
"25.03.2024 23:30";259
"25.03.2024 23:45";259
"26.03.2024 00:00";259
"26.03.2024 00:15";259
"26.03.2024 00:30";259
"26.03.2024 00:45";259
"26.03.2024 01:00";259
"26.03.2024 01:15";259
"26.03.2024 01:30";259
"26.03.2024 01:45";259
"26.03.2024 02:00";259
"26.03.2024 02:15";259
"26.03.2024 02:30";260
"26.03.2024 02:45";260
"26.03.2024 03:00";260
"26.03.2024 03:15";260
"26.03.2024 03:30";260
"26.03.2024 03:45";260
"26.03.2024 04:00";260
"26.03.2024 04:15";260
"26.03.2024 04:30";260
"26.03.2024 04:45";260
"26.03.2024 05:00";260
"26.03.2024 05:15";260
"26.03.2024 05:30";260
"26.03.2024 05:45";260
"26.03.2024 06:00";260
"26.03.2024 06:15";260
"26.03.2024 06:30";260
"26.03.2024 06:45";260
"26.03.2024 07:00";260
"26.03.2024 07:15";260
"26.03.2024 07:30";260
"26.03.2024 07:45";260
"26.03.2024 08:00";261
"26.03.2024 08:15";261
"26.03.2024 08:30";261
"26.03.2024 08:45";261
"26.03.2024 09:00";261
"26.03.2024 09:15";261
"26.03.2024 09:30";261
"26.03.2024 09:45";261
"26.03.2024 10:00";261
"26.03.2024 10:15";261
"26.03.2024 10:30";261
"26.03.2024 10:45";261
"26.03.2024 11:00";261
"26.03.2024 11:15";261
"26.03.2024 11:30";261
"26.03.2024 11:45";261
"26.03.2024 12:00";261
"26.03.2024 12:15";261
"26.03.2024 12:30";261
"26.03.2024 12:45";261
"26.03.2024 13:00";261
"26.03.2024 13:15";261
"26.03.2024 13:30";261
"26.03.2024 13:45";261
"26.03.2024 14:00";261
"26.03.2024 14:15";261
"26.03.2024 14:30";261
"26.03.2024 14:45";261
"26.03.2024 15:00";261
"26.03.2024 15:15";261
"26.03.2024 15:30";261
"26.03.2024 15:45";261
"26.03.2024 16:00";261
"26.03.2024 16:15";261
"26.03.2024 16:30";261
"26.03.2024 16:45";261
"26.03.2024 17:00";261
"26.03.2024 17:15";261
"26.03.2024 17:30";261
"26.03.2024 17:45";261
"26.03.2024 18:00";261
"26.03.2024 18:15";261
"26.03.2024 18:30";261
"26.03.2024 18:45";261
"26.03.2024 19:00";261
"26.03.2024 19:15";261
"26.03.2024 19:30";261
"26.03.2024 19:45";261
"26.03.2024 20:00";261
"26.03.2024 20:15";261
"26.03.2024 20:30";261
"26.03.2024 20:45";261
"26.03.2024 21:00";261
"26.03.2024 21:15";261
"26.03.2024 21:30";261
"26.03.2024 21:45";261
"26.03.2024 22:00";261
"26.03.2024 22:15";261
"26.03.2024 22:30";261
"26.03.2024 22:45";261
"26.03.2024 23:00";260
"26.03.2024 23:15";260
"26.03.2024 23:30";260
"26.03.2024 23:45";260
"27.03.2024 00:00";260
"27.03.2024 00:15";260
"27.03.2024 00:30";260
"27.03.2024 00:45";260
"27.03.2024 01:00";260
"27.03.2024 01:15";260
"27.03.2024 01:30";260
"27.03.2024 01:45";260
"27.03.2024 02:00";260
"27.03.2024 02:15";260
"27.03.2024 02:30";260
"27.03.2024 02:45";259
"27.03.2024 03:00";259
"27.03.2024 03:15";259
"27.03.2024 03:30";259
"27.03.2024 03:45";259
"27.03.2024 04:00";259
"27.03.2024 04:15";259
"27.03.2024 04:30";259
"27.03.2024 04:45";259
"27.03.2024 05:00";259
"27.03.2024 05:15";259
"27.03.2024 05:30";259
"27.03.2024 05:45";259
"27.03.2024 06:00";259
"27.03.2024 06:15";259
"27.03.2024 06:30";259
"27.03.2024 06:45";258
"27.03.2024 07:00";258
"27.03.2024 07:15";258
"27.03.2024 07:30";258
"27.03.2024 07:45";258
"27.03.2024 08:00";258
"27.03.2024 08:15";258
"27.03.2024 08:30";258
"27.03.2024 08:45";258
"27.03.2024 09:00";258
"27.03.2024 09:15";258
"27.03.2024 09:30";258
"27.03.2024 09:45";258
"27.03.2024 10:00";258
"27.03.2024 10:15";258
"27.03.2024 10:30";257
"27.03.2024 10:45";257
"27.03.2024 11:00";257
"27.03.2024 11:15";257
"27.03.2024 11:30";257
"27.03.2024 11:45";257
"27.03.2024 12:00";257
"27.03.2024 12:15";257
"27.03.2024 12:30";257
"27.03.2024 12:45";257
"27.03.2024 13:00";257
"27.03.2024 13:15";257
"27.03.2024 13:30";257
"27.03.2024 13:45";257
"27.03.2024 14:00";257
"27.03.2024 14:15";257
"27.03.2024 14:30";257
"27.03.2024 14:45";257
"27.03.2024 15:00";256
"27.03.2024 15:15";256
"27.03.2024 15:30";256
"27.03.2024 15:45";256
"27.03.2024 16:00";256
"27.03.2024 16:15";256
"27.03.2024 16:30";256
"27.03.2024 16:45";256
"27.03.2024 17:00";256
"27.03.2024 17:15";256
"27.03.2024 17:30";256
"27.03.2024 17:45";256
"27.03.2024 18:00";256
"27.03.2024 18:15";256
"27.03.2024 18:30";256
"27.03.2024 18:45";255
"27.03.2024 19:00";255
"27.03.2024 19:15";255
"27.03.2024 19:30";255
"27.03.2024 19:45";255
"27.03.2024 20:00";255
"27.03.2024 20:15";255
"27.03.2024 20:30";255
"27.03.2024 20:45";255
"27.03.2024 21:00";255
"27.03.2024 21:15";255
"27.03.2024 21:30";255
"27.03.2024 21:45";255
"27.03.2024 22:00";255
"27.03.2024 22:15";255
"27.03.2024 22:30";255
"27.03.2024 22:45";255
"27.03.2024 23:00";255
"27.03.2024 23:15";255
"27.03.2024 23:30";255
"27.03.2024 23:45";255
"28.03.2024 00:00";255
"28.03.2024 00:15";255
"28.03.2024 00:30";255
"28.03.2024 00:45";254
"28.03.2024 01:00";254
"28.03.2024 01:15";254
"28.03.2024 01:30";254
"28.03.2024 01:45";254
"28.03.2024 02:00";254
"28.03.2024 02:15";254
"28.03.2024 02:30";254
"28.03.2024 02:45";254
"28.03.2024 03:00";254
"28.03.2024 03:15";254
"28.03.2024 03:30";254
"28.03.2024 03:45";254
"28.03.2024 04:00";254
"28.03.2024 04:15";254
"28.03.2024 04:30";254
"28.03.2024 04:45";254
"28.03.2024 05:00";254
"28.03.2024 05:15";253
"28.03.2024 05:30";253
"28.03.2024 05:45";253
"28.03.2024 06:00";253
"28.03.2024 06:15";253
"28.03.2024 06:30";253
"28.03.2024 06:45";253
"28.03.2024 07:00";253
"28.03.2024 07:15";253
"28.03.2024 07:30";253
"28.03.2024 07:45";253
"28.03.2024 08:00";253
"28.03.2024 08:15";253
"28.03.2024 08:30";253
"28.03.2024 08:45";253
"28.03.2024 09:00";253
"28.03.2024 09:15";253
"28.03.2024 09:30";253
"28.03.2024 09:45";253
"28.03.2024 10:00";252
"28.03.2024 10:15";252
"28.03.2024 10:30";252
"28.03.2024 10:45";252
"28.03.2024 11:00";252
"28.03.2024 11:15";252
"28.03.2024 11:30";252
"28.03.2024 11:45";252
"28.03.2024 12:00";252
"28.03.2024 12:15";252
"28.03.2024 12:30";252
"28.03.2024 12:45";252
"28.03.2024 13:00";252
"28.03.2024 13:15";252
"28.03.2024 13:30";252
"28.03.2024 13:45";252
"28.03.2024 14:00";252
"28.03.2024 14:15";252
"28.03.2024 14:30";250
"28.03.2024 14:45";250
"28.03.2024 15:00";250
"28.03.2024 15:15";250
"28.03.2024 15:30";250
"28.03.2024 15:45";250
"28.03.2024 16:00";250
"28.03.2024 16:15";250
"28.03.2024 16:30";250
"28.03.2024 16:45";250
"28.03.2024 17:00";250
"28.03.2024 17:15";250
"28.03.2024 17:30";250
"28.03.2024 17:45";250
"28.03.2024 18:00";250
"28.03.2024 18:15";250
"28.03.2024 18:30";250
"28.03.2024 18:45";250
"28.03.2024 19:00";250
"28.03.2024 19:15";250
"28.03.2024 19:30";250
"28.03.2024 19:45";250
"28.03.2024 20:00";250
"28.03.2024 20:15";250
"28.03.2024 20:30";250
"28.03.2024 20:45";249
"28.03.2024 21:00";249
"28.03.2024 21:15";249
"28.03.2024 21:30";249
"28.03.2024 21:45";249
"28.03.2024 22:00";249
"28.03.2024 22:15";249
"28.03.2024 22:30";249
"28.03.2024 22:45";249
"28.03.2024 23:00";249
"28.03.2024 23:15";249
"28.03.2024 23:30";249
"28.03.2024 23:45";249
"29.03.2024 00:00";249
"29.03.2024 00:15";249
"29.03.2024 00:30";249
"29.03.2024 00:45";249
"29.03.2024 01:00";248
"29.03.2024 01:15";248
"29.03.2024 01:30";248
"29.03.2024 01:45";248
"29.03.2024 02:00";248
"29.03.2024 02:15";248
"29.03.2024 02:30";248
"29.03.2024 02:45";248
"29.03.2024 03:00";248
"29.03.2024 03:15";248
"29.03.2024 03:30";248
"29.03.2024 03:45";248
"29.03.2024 04:00";248
"29.03.2024 04:15";248
"29.03.2024 04:30";248
"29.03.2024 04:45";248
"29.03.2024 05:00";247
"29.03.2024 05:15";247
"29.03.2024 05:30";247
"29.03.2024 05:45";247
"29.03.2024 06:00";247
"29.03.2024 06:15";247
"29.03.2024 06:30";247
"29.03.2024 06:45";247
"29.03.2024 07:00";247
"29.03.2024 07:15";247
"29.03.2024 07:30";247
"29.03.2024 07:45";247
"29.03.2024 08:00";247
"29.03.2024 08:15";247
"29.03.2024 08:30";247
"29.03.2024 08:45";247
"29.03.2024 09:00";246
"29.03.2024 09:15";246
"29.03.2024 09:30";246
"29.03.2024 09:45";246
"29.03.2024 10:00";246
"29.03.2024 10:15";246
"29.03.2024 10:30";246
"29.03.2024 10:45";246
"29.03.2024 11:00";246
"29.03.2024 11:15";246
"29.03.2024 11:30";246
"29.03.2024 11:45";245
"29.03.2024 12:00";245
"29.03.2024 12:15";245
"29.03.2024 12:30";245
"29.03.2024 12:45";245
"29.03.2024 13:00";245
"29.03.2024 13:15";245
"29.03.2024 13:30";245
"29.03.2024 13:45";245
"29.03.2024 14:00";245
"29.03.2024 14:15";245
"29.03.2024 14:30";245
"29.03.2024 14:45";245
"29.03.2024 15:00";245
"29.03.2024 15:15";245
"29.03.2024 15:30";244
"29.03.2024 15:45";244
"29.03.2024 16:00";244
"29.03.2024 16:15";244
"29.03.2024 16:30";244
"29.03.2024 16:45";244
"29.03.2024 17:00";244
"29.03.2024 17:15";244
"29.03.2024 17:30";244
"29.03.2024 17:45";244
"29.03.2024 18:00";244
"29.03.2024 18:15";244
"29.03.2024 18:30";244
"29.03.2024 18:45";244
"29.03.2024 19:00";244
"29.03.2024 19:15";244
"29.03.2024 19:30";244
"29.03.2024 19:45";244
"29.03.2024 20:00";244
"29.03.2024 20:15";244
"29.03.2024 20:30";244
"29.03.2024 20:45";244
"29.03.2024 21:00";244
"29.03.2024 21:15";243
"29.03.2024 21:30";243
"29.03.2024 21:45";243
"29.03.2024 22:00";243
"29.03.2024 22:15";243
"29.03.2024 22:30";243
"29.03.2024 22:45";243
"29.03.2024 23:00";243
"29.03.2024 23:15";243
"29.03.2024 23:30";243
"29.03.2024 23:45";243
"30.03.2024 00:00";243
"30.03.2024 00:15";243
"30.03.2024 00:30";243
"30.03.2024 00:45";243
"30.03.2024 01:00";243
"30.03.2024 01:15";243
"30.03.2024 01:30";243
"30.03.2024 01:45";243
"30.03.2024 02:00";243
"30.03.2024 02:15";243
"30.03.2024 02:30";243
"30.03.2024 02:45";243
"30.03.2024 03:00";243
"30.03.2024 03:15";243
"30.03.2024 03:30";243
"30.03.2024 03:45";243
"30.03.2024 04:00";243
"30.03.2024 04:15";243
"30.03.2024 04:30";243
"30.03.2024 04:45";243
"30.03.2024 05:00";243
"30.03.2024 05:15";243
"30.03.2024 05:30";243
"30.03.2024 05:45";243
"30.03.2024 06:00";243
"30.03.2024 06:15";242
"30.03.2024 06:30";242
"30.03.2024 06:45";242
"30.03.2024 07:00";242
"30.03.2024 07:15";242
"30.03.2024 07:30";242
"30.03.2024 07:45";242
"30.03.2024 08:00";242
"30.03.2024 08:15";242
"30.03.2024 08:30";242
"30.03.2024 08:45";242
"30.03.2024 09:00";242
"30.03.2024 09:15";242
"30.03.2024 09:30";242
"30.03.2024 09:45";242
"30.03.2024 10:00";242
"30.03.2024 10:15";242
"30.03.2024 10:30";242
"30.03.2024 10:45";242
"30.03.2024 11:00";242
"30.03.2024 11:15";242
"30.03.2024 11:30";242
"30.03.2024 11:45";241
"30.03.2024 12:00";241
"30.03.2024 12:15";241
"30.03.2024 12:30";241
"30.03.2024 12:45";241
"30.03.2024 13:00";241
"30.03.2024 13:15";241
"30.03.2024 13:30";241
"30.03.2024 13:45";241
"30.03.2024 14:00";241
"30.03.2024 14:15";241
"30.03.2024 14:30";241
"30.03.2024 14:45";241
"30.03.2024 15:00";241
"30.03.2024 15:15";241
"30.03.2024 15:30";241
"30.03.2024 15:45";241
"30.03.2024 16:00";241
"30.03.2024 16:15";241
"30.03.2024 16:30";241
"30.03.2024 16:45";241
"30.03.2024 17:00";241
"30.03.2024 17:15";241
"30.03.2024 17:30";241
"30.03.2024 17:45";240
"30.03.2024 18:00";240
"30.03.2024 18:15";240
"30.03.2024 18:30";240
"30.03.2024 18:45";240
"30.03.2024 19:00";240
"30.03.2024 19:15";240